SCP
0 0 -0 -0 0 0 0 -0 -0 0 0 0 0 0 0 0 0 0 0 0 0 0 -0 -0 -0 -0 -0 -0 -0 -0 -0 -0 -0 -0 0 0 0 0 0 0 0 0 0 0 0 0 0 0 0
-0 -0 -0 -0 0 0 0 0 0 0 0 0 0 0 0 0 0 0 0 0 0 0 -0 -0 -0 -0 -0 -0 -0 -0 -0 -0 -0 -0 -0 -0 0 0 0 0 0 0 0 0 0 0 0 0 0
-0 -0 0 0 0 0 0 0 0 0 -0 0 0 0 0 0 0 0 0 0 0 0 -0 -0 -0 -0 -0 -0 -0 -0 -0 -0 -0 -0 -0 -0 -0 0 0 0 0 0 0 0 0 0 0 0 0
-0 -0 0 0 0 0 0 0 0 0 0 0 0 0 0 0 0 0 0 0 0 0 0 -0 -0 -0 -0 -0 -0 -0 -0 -0 -0 -0 -0 -0 -0 0 0 0 0 0 0 0 0 0 0 0 0
-0 0 0 0 0 0 0 0 0 0 0 0 0 0 0 0 0 0 0 0 0 0 0 0 -0 -0 -0 -0 -0 -0 -0 -0 -0 -0 -0 -0 0 0 0 0 0 0 0 0 0 0 0 0 0
0 0 0 0 0 0 0 0 -0 0 0 0 0 0 0 0 0 0 0 0 0 0 0 0 0 -0 -0 -0 -0 -0 -0 0 0 -0 0 -0 0 0 0 0 0 0 0 0 0 0 0 0 0
0 0 0 0 0 0 0 0 0 0 0 0 0 0 0 0 0 0 0 0 0 0 0 0 0 0 0 0 -0 -0 -0 -0 0 0 0 0 0 0 0 0 0 0 0 0 0 0 0 0 0
0 0 0 0 0 0 0 0 0 0 0 0 0 0 0 0 0 0 0 0 0 0 0 0 0 0 0 0 0 0 0 0 0 0 0 0 0 0 0 0 0 0 0 0 0 0 0 0 0
0 0 0 0 0 0 0 0 0 0 0 0 0 0 0 0 0 0 0 0 0 0 0 0 0 0 0 0 0 0 0 0 0 0 0 0 0 0 0 0 0 0 0 0 0 0 0 0 0
0 0 0 0 0 0 0 0 0 0 -0 0 0 0 0 0 0 0 0 0 0 0 0 0 0 0 0 0 0 0 0 0 0 0 0 0 0 0 0 0 0 0 0 0 0 0 0 0 0
0 0 0 0 0 0 0 0 0 0 0 0 0 0 0 0 0 0 0 0 0 0 0 0 0 0 0 0 0 0 0 0 0 0 0 0 0 0 0 0 0 0 0 0 0 0 0 0 0
0 0 0 0 0 0 0 0 0 0 0 0 0 0 0 0 0 0 0 0 0 0 0 0 0 0 0 0 0 0 0 0 0 0 0 0 0 0 0 0 0 0 0 0 0 0 0 0 0
0 0 0 0 0 0 0 0 0 0 0 0 0 0 0 0 0 0 0 0 0 0 0 0 0 0 0 0 0 0 0 0 0 0 0 0 0 0 0 0 0 0 0 0 0 0 0 0 0
0 0 0 0 0 0 0 0 0 0 0 0 0 0 0 0 0 0 0 0 0 0 0 0 0 0 0 0 0 0 0 0 0 0 0 0 0 0 0 0 0 0 0 0 0 0 0 0 0
0 0 0 0 0 0 0 0 0 0 0 0 0 0 0 0 0 0 0 0 0 0 0 0 0 0 0 0 0 0 0 0 0 0 0 0 0 0 0 0 0 0 0 0 0 0 0 0 0
0 0 0 0 0 0 0 0 0 0 0 0 0 0 0 0 0 0 0 0 0 0 0 0 0 0 0 0 0 0 0 0 0 0 0 0 0 0 0 0 0 0 0 0 0 0 0 0 0
0 0 0 0 0 0 0 0 0 0 0 0 0 0 0 0 0 0 0 0 0 0 0 0 0 0 0 0 0 0 0 0 0 0 0 0 0 0 0 0 0 0 0 0 0 0 0 0 0
0 0 0 0 0 0 0 0 0 0 0 0 0 0 0 0 0 0 0 0 0 0 0 0 0 0 0 0 0 0 0 0 0 0 0 0 0 0 0 0 0 0 0 0 0 0 0 0 0
0 0 0 0 0 0 0 0 0 0 0 0 0 0 0 0 0 0 0 0 0 0 0 0 0 0 0 0 0 0 0 0 0 0 0 0 0 0 0 0 0 0 0 0 0 0 0 0 0
0 0 0 0 0 0 0 0 0 0 0 0 0 0 0 0 0 0 0 0 0 0 0 0 0 0 0 0 0 0 0 0 0 0 0 0 0 0 0 0 0 0 0 0 0 0 0 0 0
0 0 0 0 0 0 0 0 0 0 0 0 0 0 0 0 0 0 0 0 0 0 0 0 0 0 0 0 0 0 0 0 0 0 0 0 0 0 0 0 0 0 0 0 0 0 0 0 0
0 0 0 0 0 0 0 0 0 0 0 0 0 0 0 0 0 0 0 0 0 0 0 0 0 0 0 0 0 0 0 0 0 0 0 0 0 0 0 0 0 0 0 0 0 0 0 0 0
0 0 0 0 0 0 0 0 0 0 0 0 0 0 0 0 0 0 0 0 0 0 0 0 0 0 0 0 0 0 0 0 0 0 0 0 0 0 0 0 0 0 0 0 0 0 0 0 0
0 0 0 0 0 0 0 0 0 0 0 0 0 0 0 0 0 0 0 0 0 0 0 0 0 0 0 -0 -0 0 0 0 0 0 0 0 0 0 0 0 0 0 0 0 0 0 0 0 0
0 0 0 0 0 0 0 0 0 0 0 0 0 0 0 0 0 0 0 0 0 0 0 0 0 0 0 0 0 -0 -0 -0 -0 0 0 0 0 0 0 0 0 0 0 0 0 0 0 0 0
0 0 0 0 0 0 0 0 0 0 0 0 0 0 0 0 0 0 0 0 0 0 0 -0 -0 0 0 0 -0 -0 -0 -0 0 0 0 0 0 0 0 0 0 0 0 0 0 0 0 0 0
0 0 0 0 0 0 0 0 0 0 0 0 0 0 0 0 0 0 0 0 0 0 0 -0 -0 -0 0 0 0 0 0 0 0 0 0 0 0 0 0 0 0 0 0 0 0 0 0 0 0
0 0 0 0 0 0 0 0 0 0 0 0 0 0 0 0 0 0 0 0 0 -0 -0 -0 0 0 0 0 0 0 0 0 0 0 0 0 0 0 0 0 0 0 0 0 0 -0 0 -0 -0
0 0 0 0 0 0 0 0 0 0 0 0 0 0 0 0 0 0 0 0 -0 -0 -0 0 0 0 0 0 0 0 0 0 0 0 0 0 0 0 0 0 -0 -0 -0 -0 -0 -0 -0 -0 -0
0 0 0 0 0 0 0 0 0 0 0 0 0 0 0 0 0 0 0 0 0 0 0 0 0 0 0 0 0 0 0 0 0 0 0 0 0 0 0 0 0 0 0 0 -0 -0 -0 -0 -0
Wind_Speed_500mb
11 8 7 2 7 10 3 3 4 1 3 1 2 3 4 3 6 7 3 3 1 16 28 39 38 35 34 32 31 29 27 25 22 19 16 15 15 15 13 12 11 11 10 7 2 4 4 5 4
9 6 3 4 10 7 8 8 4 3 2 3 3 3 2 3 3 5 2 2 5 10 21 36 39 38 36 34 30 28 27 23 21 19 18 17 18 17 14 13 13 12 9 8 4 3 2 1 2
8 7 4 8 7 7 7 7 7 5 2 4 2 1 1 2 3 5 6 3 3 8 16 28 36 38 37 35 32 29 27 24 21 20 20 21 18 19 16 15 16 16 10 10 9 7 6 5 7
5 4 9 9 1 5 6 7 6 1 2 2 3 3 4 5 4 3 4 3 4 9 11 23 33 36 37 36 34 33 30 26 24 21 23 21 13 14 17 18 21 23 18 13 12 10 9 10 11
5 6 8 7 6 8 6 4 6 5 1 3 2 6 6 8 9 4 3 6 4 7 12 18 30 36 37 37 36 35 33 30 27 25 26 28 26 21 20 23 27 29 25 16 14 12 12 12 13
6 6 9 1 7 8 11 9 5 4 2 1 2 5 6 8 6 5 5 4 5 6 12 17 25 36 40 40 39 38 36 33 30 32 31 25 26 25 25 25 29 29 23 16 15 14 13 12 10
9 7 6 4 6 9 7 22 6 4 3 2 1 2 9 12 6 12 13 11 9 9 14 17 23 31 40 43 43 42 40 37 36 36 29 30 26 26 25 20 20 21 18 18 18 17 14 12 11
6 9 3 4 4 3 9 19 7 9 5 2 5 4 8 24 26 22 19 18 14 12 13 18 22 29 36 44 47 45 43 40 41 38 36 35 36 34 27 18 17 21 21 19 18 17 16 14 14
4 8 3 7 8 6 12 13 6 21 11 7 11 15 22 30 17 21 23 24 23 22 23 22 25 30 34 38 44 48 47 45 44 41 40 40 40 39 30 22 21 20 20 23 19 18 18 19 18
7 7 14 8 6 5 11 6 14 13 26 16 26 31 29 26 29 24 33 32 34 38 35 31 29 32 35 36 39 45 49 50 48 45 43 42 40 38 38 26 27 28 24 26 23 21 21 22 21
6 9 8 7 14 9 7 16 2 6 13 37 29 39 31 24 19 24 29 37 44 47 42 42 37 34 37 38 38 42 46 50 48 46 45 43 44 44 42 38 35 33 31 30 28 25 23 26 25
2 12 12 7 7 8 9 16 12 20 40 42 33 21 19 20 18 15 17 24 26 29 30 36 42 41 37 36 38 37 42 46 50 50 48 46 46 48 47 45 40 38 36 33 31 28 27 31 30
6 8 13 22 30 24 21 29 16 46 30 18 12 1 12 15 14 14 21 22 29 32 27 28 34 38 38 37 35 33 36 42 48 51 50 50 47 48 45 46 43 40 39 37 36 34 32 34 35
4 11 23 25 34 24 14 14 1 12 6 18 16 14 18 19 15 14 18 26 32 31 30 34 33 31 35 34 35 31 27 29 36 42 49 50 50 50 50 44 45 43 41 35 37 38 38 39 40
4 10 15 20 11 11 5 6 12 19 18 22 13 11 10 11 16 18 15 18 24 26 27 24 29 30 28 29 32 31 26 22 24 27 30 33 37 40 43 44 47 48 49 41 38 42 44 44 45
4 5 7 4 4 1 10 15 13 19 28 19 7 6 8 9 10 11 12 11 12 17 20 22 21 25 28 27 31 29 26 21 21 25 27 30 32 36 43 46 48 45 46 46 42 46 46 45 46
8 7 10 16 2 5 4 11 28 30 35 25 11 13 13 13 11 12 11 11 11 11 10 9 6 15 19 21 26 25 22 20 19 22 25 28 29 32 37 41 41 44 45 46 42 44 43 45 45
12 10 10 11 3 6 5 17 24 37 25 18 23 23 23 25 28 22 17 13 13 16 16 11 10 8 10 9 13 15 16 14 17 20 22 23 24 27 30 31 31 34 39 41 41 41 40 43 45
7 8 9 8 7 5 13 15 9 16 30 30 29 32 35 37 35 34 33 29 21 13 14 17 13 16 9 7 9 8 10 9 15 18 21 21 21 20 18 20 28 29 30 35 36 41 41 43 45
7 5 12 12 7 10 14 20 12 19 14 22 29 33 35 37 41 47 50 50 53 48 43 34 27 20 16 11 5 2 2 5 7 8 11 16 19 20 22 26 20 25 26 28 31 35 39 42 43
8 10 9 14 6 2 8 15 7 10 27 30 30 31 31 36 43 45 49 53 53 56 57 55 51 46 40 28 16 11 7 6 2 5 5 9 11 15 21 23 25 29 31 33 32 31 34 39 42
6 13 7 6 4 5 4 9 7 10 10 12 20 26 32 33 36 39 42 47 49 52 49 48 45 45 44 38 32 26 22 20 20 16 15 13 13 14 14 17 21 27 29 31 35 37 35 37 42
12 8 9 5 6 6 6 3 11 12 8 9 16 24 26 28 30 35 39 44 47 46 47 47 43 40 38 35 33 31 30 30 26 20 14 15 18 19 20 19 19 23 27 29 30 32 34 35 39
10 7 9 7 6 1 14 14 8 10 8 11 24 27 27 27 29 34 35 35 34 32 31 30 28 30 29 29 29 27 24 23 19 20 21 21 21 23 24 24 24 23 22 28 34 34 32 32 38
9 10 5 7 4 10 5 7 14 8 10 20 35 39 32 29 30 30 26 23 20 17 18 19 16 18 20 20 19 19 18 19 21 20 21 20 23 25 27 29 30 31 31 29 29 31 30 31 36
11 14 10 13 6 7 9 12 9 4 5 36 50 41 35 31 28 20 15 10 9 10 10 8 8 11 12 14 18 20 20 20 23 26 30 31 30 30 31 34 36 39 41 39 37 43 42 33 30
9 8 8 11 5 2 9 8 2 7 7 28 40 40 39 34 29 17 10 4 3 4 3 4 5 7 9 10 12 15 18 20 24 27 30 32 33 36 36 36 37 40 43 46 47 46 48 48 49
8 12 7 5 3 9 9 12 10 15 20 15 23 45 42 36 31 23 13 7 3 3 2 3 2 3 5 7 9 12 16 20 24 28 31 33 35 38 41 45 46 49 51 52 55 57 57 61 59
4 4 7 7 9 10 4 11 8 22 27 30 40 49 43 40 31 25 22 17 12 8 7 6 4 2 4 8 12 15 19 23 27 31 35 39 42 46 49 53 56 57 61 64 67 67 68 69 72
5 14 14 11 12 6 5 19 7 11 30 38 46 46 39 33 31 32 28 22 18 13 13 12 8 4 5 9 13 19 23 28 32 35 37 40 42 43 47 51 56 61 69 76 84 87 87 88 89
Wind_Direction_500mb
332 325 313 265 56 66 321 278 314 256 316 214 49 103 168 184 160 208 301 171 153 184 187 186 193 196 201 205 205 203 202 204 208 208 208 205 203 196 210 222 244 276 304 309 359 53 74 86 99
350 356 28 79 81 64 282 268 256 246 358 82 93 84 44 277 228 290 291 285 159 179 191 192 195 199 204 209 211 209 210 214 218 219 222 224 222 222 230 243 262 285 297 279 295 324 341 51 253
7 15 28 87 103 156 195 233 234 302 71 22 27 305 329 281 273 313 317 280 230 181 193 198 200 203 208 213 214 218 219 224 224 226 231 240 222 223 236 254 271 280 285 281 279 286 291 284 257
335 22 58 78 93 243 223 242 215 48 13 12 7 347 283 253 288 308 3 357 265 210 198 203 209 212 214 217 219 220 224 228 231 234 231 233 245 241 252 263 272 278 285 272 271 280 291 281 262
30 55 53 77 287 268 262 253 191 147 81 293 355 318 281 281 248 254 27 32 343 254 222 212 214 220 222 225 226 227 229 229 228 228 235 240 251 259 263 269 273 273 278 279 278 286 284 276 265
52 53 56 168 281 286 308 354 303 80 76 185 255 315 292 323 256 256 285 343 346 265 242 229 219 222 227 229 231 233 235 235 229 227 230 235 242 258 270 278 274 265 270 275 279 283 279 274 257
94 74 171 199 277 329 332 343 341 20 347 290 205 334 303 360 311 292 269 284 312 280 248 244 234 226 228 233 235 236 235 235 235 236 239 234 250 266 273 285 291 276 276 280 289 287 280 262 247
88 91 103 257 260 241 332 352 354 14 325 308 324 278 323 327 321 305 266 258 287 290 275 262 248 240 233 231 233 236 238 237 238 240 243 248 260 267 267 267 299 289 283 279 283 277 273 256 253
94 64 196 234 178 263 339 6 338 330 266 270 281 293 314 309 319 310 309 281 278 294 293 280 263 250 243 239 237 236 236 236 239 241 245 249 253 260 259 263 285 299 288 286 281 268 256 244 245
100 120 219 219 182 237 307 292 318 316 308 306 311 331 325 302 298 297 310 308 294 297 291 278 277 260 249 245 241 238 238 237 236 237 241 246 252 251 265 268 277 284 294 290 284 270 258 250 250
167 195 208 251 248 263 283 294 138 240 296 298 320 334 332 327 298 290 295 293 289 290 279 267 268 271 257 250 248 244 242 238 238 239 239 243 247 248 253 261 270 276 284 293 287 275 264 254 253
246 254 238 264 246 297 277 294 290 242 275 305 316 340 26 28 12 343 316 305 297 294 280 267 261 263 262 256 252 253 249 243 234 239 241 241 241 244 251 255 262 266 276 283 286 280 264 255 254
210 280 282 280 282 284 271 261 260 275 302 336 3 222 359 350 343 325 317 304 288 289 286 271 255 258 256 256 258 259 257 252 243 243 249 251 247 250 253 256 260 267 271 276 283 281 272 262 257
213 274 281 284 277 280 246 270 294 275 351 352 340 345 343 340 346 328 309 304 303 295 280 276 264 254 250 255 257 263 271 268 255 249 252 257 254 256 254 260 265 274 282 279 279 278 273 267 259
261 317 322 275 272 204 188 292 233 270 314 341 334 336 335 331 337 354 345 321 315 308 305 283 267 244 234 249 254 260 271 276 268 260 258 261 260 256 253 264 267 274 280 287 284 282 276 271 267
12 42 324 266 166 75 150 260 272 307 324 357 5 57 61 53 13 348 345 346 332 323 309 301 275 233 218 227 236 247 259 272 289 268 260 256 263 263 260 267 272 273 282 277 282 287 279 277 274
4 232 217 315 197 123 143 273 275 295 323 338 84 73 69 65 48 28 12 5 7 359 347 309 264 209 207 214 222 234 246 251 256 257 262 261 260 263 270 275 274 276 274 276 278 285 283 281 277
205 220 245 239 158 30 283 250 271 323 352 106 94 88 78 66 55 50 48 43 34 33 39 40 65 118 134 159 193 215 224 232 250 252 248 250 256 265 265 269 271 273 277 277 284 286 287 287 284
151 186 231 264 267 344 257 257 334 32 70 94 91 88 84 77 72 70 69 64 58 53 62 68 74 76 92 154 174 191 222 217 250 255 255 256 256 248 262 279 280 281 279 272 285 286 288 289 293
251 238 262 281 272 173 289 281 72 43 62 98 105 100 98 95 86 80 77 74 69 66 64 63 63 63 67 68 78 166 186 195 219 262 273 271 268 265 270 267 263 265 282 296 287 286 289 287 289
215 192 218 228 335 285 331 290 163 63 89 97 102 106 99 91 85 82 79 76 73 68 64 62 61 59 58 56 60 68 69 95 167 288 331 342 307 293 285 279 273 274 278 281 287 289 289 287 285
241 214 212 190 95 227 32 277 309 138 100 73 113 113 109 102 93 87 81 76 71 66 63 61 59 60 62 62 59 60 63 61 52 37 28 4 343 332 317 311 296 281 282 283 282 282 285 286 285
228 148 148 119 117 70 288 303 263 117 174 177 157 135 124 113 103 93 83 75 67 58 49 42 40 41 47 48 52 59 62 65 65 58 41 30 19 12 6 358 340 326 320 310 303 290 285 286 282
137 111 69 64 103 264 233 180 263 193 203 169 175 159 146 131 117 101 89 79 69 63 53 48 45 46 39 25 23 29 45 55 52 51 42 40 35 28 22 21 23 18 359 343 331 321 314 303 289
88 70 321 338 355 227 131 133 246 296 297 186 169 167 158 147 129 114 101 84 75 67 55 45 44 51 54 49 50 39 30 25 22 22 24 16 12 13 12 8 3 1 2 2 359 352 336 323 310
176 160 162 221 200 282 319 231 258 320 345 159 165 162 161 157 146 132 119 89 73 55 44 39 42 53 56 48 44 42 35 28 24 21 16 13 8 8 1 355 352 349 345 344 344 342 342 340 331
184 176 165 106 50 49 249 293 218 92 88 142 161 172 178 174 171 177 173 152 51 42 35 37 44 56 48 39 32 21 16 10 8 4 0 357 352 350 349 345 342 338 334 332 331 329 327 326 326
158 163 87 21 162 250 277 274 226 198 195 190 191 193 190 189 193 202 217 227 251 291 283 155 136 89 62 36 14 3 357 354 353 348 344 342 342 338 335 333 332 332 330 327 324 322 318 315 313
131 180 73 126 145 180 257 256 237 192 183 191 203 200 199 201 207 220 229 229 240 245 210 189 166 80 25 359 351 346 342 340 338 334 330 328 329 330 330 329 328 327 325 322 318 315 311 307 305
214 187 159 187 234 244 163 260 354 176 188 188 200 204 208 216 231 232 236 238 240 235 219 202 198 223 292 316 320 319 321 323 322 321 322 322 322 321 321 319 318 318 316 315 314 311 309 307 304
Wind_Speed_850mb
11 8 7 2 7 10 3 3 4 1 3 1 2 3 4 3 6 7 3 3 1 16 28 39 38 35 34 32 31 29 27 25 22 19 16 15 15 15 13 12 11 11 10 7 2 4 4 5 4
9 6 3 4 10 7 8 8 4 3 2 3 3 3 2 3 3 5 2 2 5 10 21 36 39 38 36 34 30 28 27 23 21 19 18 17 18 17 14 13 13 12 9 8 4 3 2 1 2
8 7 4 8 7 7 7 7 7 5 2 4 2 1 1 2 3 5 6 3 3 8 16 28 36 38 37 35 32 29 27 24 21 20 20 21 18 19 16 15 16 16 10 10 9 7 6 5 7
5 4 9 9 1 5 6 7 6 1 2 2 3 3 4 5 4 3 4 3 4 9 11 23 33 36 37 36 34 33 30 26 24 21 23 21 13 14 17 18 21 23 18 13 12 10 9 10 11
5 6 8 7 6 8 6 4 6 5 1 3 2 6 6 8 9 4 3 6 4 7 12 18 30 36 37 37 36 35 33 30 27 25 26 28 26 21 20 23 27 29 25 16 14 12 12 12 13
6 6 9 1 7 8 11 9 5 4 2 1 2 5 6 8 6 5 5 4 5 6 12 17 25 36 40 40 39 38 36 33 30 32 31 25 26 25 25 25 29 29 23 16 15 14 13 12 10
9 7 6 4 6 9 7 22 6 4 3 2 1 2 9 12 6 12 13 11 9 9 14 17 23 31 40 43 43 42 40 37 36 36 29 30 26 26 25 20 20 21 18 18 18 17 14 12 11
6 9 3 4 4 3 9 19 7 9 5 2 5 4 8 24 26 22 19 18 14 12 13 18 22 29 36 44 47 45 43 40 41 38 36 35 36 34 27 18 17 21 21 19 18 17 16 14 14
4 8 3 7 8 6 12 13 6 21 11 7 11 15 22 30 17 21 23 24 23 22 23 22 25 30 34 38 44 48 47 45 44 41 40 40 40 39 30 22 21 20 20 23 19 18 18 19 18
7 7 14 8 6 5 11 6 14 13 26 16 26 31 29 26 29 24 33 32 34 38 35 31 29 32 35 36 39 45 49 50 48 45 43 42 40 38 38 26 27 28 24 26 23 21 21 22 21
6 9 8 7 14 9 7 16 2 6 13 37 29 39 31 24 19 24 29 37 44 47 42 42 37 34 37 38 38 42 46 50 48 46 45 43 44 44 42 38 35 33 31 30 28 25 23 26 25
2 12 12 7 7 8 9 16 12 20 40 42 33 21 19 20 18 15 17 24 26 29 30 36 42 41 37 36 38 37 42 46 50 50 48 46 46 48 47 45 40 38 36 33 31 28 27 31 30
6 8 13 22 30 24 21 29 16 46 30 18 12 1 12 15 14 14 21 22 29 32 27 28 34 38 38 37 35 33 36 42 48 51 50 50 47 48 45 46 43 40 39 37 36 34 32 34 35
4 11 23 25 34 24 14 14 1 12 6 18 16 14 18 19 15 14 18 26 32 31 30 34 33 31 35 34 35 31 27 29 36 42 49 50 50 50 50 44 45 43 41 35 37 38 38 39 40
4 10 15 20 11 11 5 6 12 19 18 22 13 11 10 11 16 18 15 18 24 26 27 24 29 30 28 29 32 31 26 22 24 27 30 33 37 40 43 44 47 48 49 41 38 42 44 44 45
4 5 7 4 4 1 10 15 13 19 28 19 7 6 8 9 10 11 12 11 12 17 20 22 21 25 28 27 31 29 26 21 21 25 27 30 32 36 43 46 48 45 46 46 42 46 46 45 46
8 7 10 16 2 5 4 11 28 30 35 25 11 13 13 13 11 12 11 11 11 11 10 9 6 15 19 21 26 25 22 20 19 22 25 28 29 32 37 41 41 44 45 46 42 44 43 45 45
12 10 10 11 3 6 5 17 24 37 25 18 23 23 23 25 28 22 17 13 13 16 16 11 10 8 10 9 13 15 16 14 17 20 22 23 24 27 30 31 31 34 39 41 41 41 40 43 45
7 8 9 8 7 5 13 15 9 16 30 30 29 32 35 37 35 34 33 29 21 13 14 17 13 16 9 7 9 8 10 9 15 18 21 21 21 20 18 20 28 29 30 35 36 41 41 43 45
7 5 12 12 7 10 14 20 12 19 14 22 29 33 35 37 41 47 50 50 53 48 43 34 27 20 16 11 5 2 2 5 7 8 11 16 19 20 22 26 20 25 26 28 31 35 39 42 43
8 10 9 14 6 2 8 15 7 10 27 30 30 31 31 36 43 45 49 53 53 56 57 55 51 46 40 28 16 11 7 6 2 5 5 9 11 15 21 23 25 29 31 33 32 31 34 39 42
6 13 7 6 4 5 4 9 7 10 10 12 20 26 32 33 36 39 42 47 49 52 49 48 45 45 44 38 32 26 22 20 20 16 15 13 13 14 14 17 21 27 29 31 35 37 35 37 42
12 8 9 5 6 6 6 3 11 12 8 9 16 24 26 28 30 35 39 44 47 46 47 47 43 40 38 35 33 31 30 30 26 20 14 15 18 19 20 19 19 23 27 29 30 32 34 35 39
10 7 9 7 6 1 14 14 8 10 8 11 24 27 27 27 29 34 35 35 34 32 31 30 28 30 29 29 29 27 24 23 19 20 21 21 21 23 24 24 24 23 22 28 34 34 32 32 38
9 10 5 7 4 10 5 7 14 8 10 20 35 39 32 29 30 30 26 23 20 17 18 19 16 18 20 20 19 19 18 19 21 20 21 20 23 25 27 29 30 31 31 29 29 31 30 31 36
11 14 10 13 6 7 9 12 9 4 5 36 50 41 35 31 28 20 15 10 9 10 10 8 8 11 12 14 18 20 20 20 23 26 30 31 30 30 31 34 36 39 41 39 37 43 42 33 30
9 8 8 11 5 2 9 8 2 7 7 28 40 40 39 34 29 17 10 4 3 4 3 4 5 7 9 10 12 15 18 20 24 27 30 32 33 36 36 36 37 40 43 46 47 46 48 48 49
8 12 7 5 3 9 9 12 10 15 20 15 23 45 42 36 31 23 13 7 3 3 2 3 2 3 5 7 9 12 16 20 24 28 31 33 35 38 41 45 46 49 51 52 55 57 57 61 59
4 4 7 7 9 10 4 11 8 22 27 30 40 49 43 40 31 25 22 17 12 8 7 6 4 2 4 8 12 15 19 23 27 31 35 39 42 46 49 53 56 57 61 64 67 67 68 69 72
5 14 14 11 12 6 5 19 7 11 30 38 46 46 39 33 31 32 28 22 18 13 13 12 8 4 5 9 13 19 23 28 32 35 37 40 42 43 47 51 56 61 69 76 84 87 87 88 89
Wind_Direction_850mb
332 325 313 265 56 66 321 278 314 256 316 214 49 103 168 184 160 208 301 171 153 184 187 186 193 196 201 205 205 203 202 204 208 208 208 205 203 196 210 222 244 276 304 309 359 53 74 86 99
350 356 28 79 81 64 282 268 256 246 358 82 93 84 44 277 228 290 291 285 159 179 191 192 195 199 204 209 211 209 210 214 218 219 222 224 222 222 230 243 262 285 297 279 295 324 341 51 253
7 15 28 87 103 156 195 233 234 302 71 22 27 305 329 281 273 313 317 280 230 181 193 198 200 203 208 213 214 218 219 224 224 226 231 240 222 223 236 254 271 280 285 281 279 286 291 284 257
335 22 58 78 93 243 223 242 215 48 13 12 7 347 283 253 288 308 3 357 265 210 198 203 209 212 214 217 219 220 224 228 231 234 231 233 245 241 252 263 272 278 285 272 271 280 291 281 262
30 55 53 77 287 268 262 253 191 147 81 293 355 318 281 281 248 254 27 32 343 254 222 212 214 220 222 225 226 227 229 229 228 228 235 240 251 259 263 269 273 273 278 279 278 286 284 276 265
52 53 56 168 281 286 308 354 303 80 76 185 255 315 292 323 256 256 285 343 346 265 242 229 219 222 227 229 231 233 235 235 229 227 230 235 242 258 270 278 274 265 270 275 279 283 279 274 257
94 74 171 199 277 329 332 343 341 20 347 290 205 334 303 360 311 292 269 284 312 280 248 244 234 226 228 233 235 236 235 235 235 236 239 234 250 266 273 285 291 276 276 280 289 287 280 262 247
88 91 103 257 260 241 332 352 354 14 325 308 324 278 323 327 321 305 266 258 287 290 275 262 248 240 233 231 233 236 238 237 238 240 243 248 260 267 267 267 299 289 283 279 283 277 273 256 253
94 64 196 234 178 263 339 6 338 330 266 270 281 293 314 309 319 310 309 281 278 294 293 280 263 250 243 239 237 236 236 236 239 241 245 249 253 260 259 263 285 299 288 286 281 268 256 244 245
100 120 219 219 182 237 307 292 318 316 308 306 311 331 325 302 298 297 310 308 294 297 291 278 277 260 249 245 241 238 238 237 236 237 241 246 252 251 265 268 277 284 294 290 284 270 258 250 250
167 195 208 251 248 263 283 294 138 240 296 298 320 334 332 327 298 290 295 293 289 290 279 267 268 271 257 250 248 244 242 238 238 239 239 243 247 248 253 261 270 276 284 293 287 275 264 254 253
246 254 238 264 246 297 277 294 290 242 275 305 316 340 26 28 12 343 316 305 297 294 280 267 261 263 262 256 252 253 249 243 234 239 241 241 241 244 251 255 262 266 276 283 286 280 264 255 254
210 280 282 280 282 284 271 261 260 275 302 336 3 222 359 350 343 325 317 304 288 289 286 271 255 258 256 256 258 259 257 252 243 243 249 251 247 250 253 256 260 267 271 276 283 281 272 262 257
213 274 281 284 277 280 246 270 294 275 351 352 340 345 343 340 346 328 309 304 303 295 280 276 264 254 250 255 257 263 271 268 255 249 252 257 254 256 254 260 265 274 282 279 279 278 273 267 259
261 317 322 275 272 204 188 292 233 270 314 341 334 336 335 331 337 354 345 321 315 308 305 283 267 244 234 249 254 260 271 276 268 260 258 261 260 256 253 264 267 274 280 287 284 282 276 271 267
12 42 324 266 166 75 150 260 272 307 324 357 5 57 61 53 13 348 345 346 332 323 309 301 275 233 218 227 236 247 259 272 289 268 260 256 263 263 260 267 272 273 282 277 282 287 279 277 274
4 232 217 315 197 123 143 273 275 295 323 338 84 73 69 65 48 28 12 5 7 359 347 309 264 209 207 214 222 234 246 251 256 257 262 261 260 263 270 275 274 276 274 276 278 285 283 281 277
205 220 245 239 158 30 283 250 271 323 352 106 94 88 78 66 55 50 48 43 34 33 39 40 65 118 134 159 193 215 224 232 250 252 248 250 256 265 265 269 271 273 277 277 284 286 287 287 284
151 186 231 264 267 344 257 257 334 32 70 94 91 88 84 77 72 70 69 64 58 53 62 68 74 76 92 154 174 191 222 217 250 255 255 256 256 248 262 279 280 281 279 272 285 286 288 289 293
251 238 262 281 272 173 289 281 72 43 62 98 105 100 98 95 86 80 77 74 69 66 64 63 63 63 67 68 78 166 186 195 219 262 273 271 268 265 270 267 263 265 282 296 287 286 289 287 289
215 192 218 228 335 285 331 290 163 63 89 97 102 106 99 91 85 82 79 76 73 68 64 62 61 59 58 56 60 68 69 95 167 288 331 342 307 293 285 279 273 274 278 281 287 289 289 287 285
241 214 212 190 95 227 32 277 309 138 100 73 113 113 109 102 93 87 81 76 71 66 63 61 59 60 62 62 59 60 63 61 52 37 28 4 343 332 317 311 296 281 282 283 282 282 285 286 285
228 148 148 119 117 70 288 303 263 117 174 177 157 135 124 113 103 93 83 75 67 58 49 42 40 41 47 48 52 59 62 65 65 58 41 30 19 12 6 358 340 326 320 310 303 290 285 286 282
137 111 69 64 103 264 233 180 263 193 203 169 175 159 146 131 117 101 89 79 69 63 53 48 45 46 39 25 23 29 45 55 52 51 42 40 35 28 22 21 23 18 359 343 331 321 314 303 289
88 70 321 338 355 227 131 133 246 296 297 186 169 167 158 147 129 114 101 84 75 67 55 45 44 51 54 49 50 39 30 25 22 22 24 16 12 13 12 8 3 1 2 2 359 352 336 323 310
176 160 162 221 200 282 319 231 258 320 345 159 165 162 161 157 146 132 119 89 73 55 44 39 42 53 56 48 44 42 35 28 24 21 16 13 8 8 1 355 352 349 345 344 344 342 342 340 331
184 176 165 106 50 49 249 293 218 92 88 142 161 172 178 174 171 177 173 152 51 42 35 37 44 56 48 39 32 21 16 10 8 4 0 357 352 350 349 345 342 338 334 332 331 329 327 326 326
158 163 87 21 162 250 277 274 226 198 195 190 191 193 190 189 193 202 217 227 251 291 283 155 136 89 62 36 14 3 357 354 353 348 344 342 342 338 335 333 332 332 330 327 324 322 318 315 313
131 180 73 126 145 180 257 256 237 192 183 191 203 200 199 201 207 220 229 229 240 245 210 189 166 80 25 359 351 346 342 340 338 334 330 328 329 330 330 329 328 327 325 322 318 315 311 307 305
214 187 159 187 234 244 163 260 354 176 188 188 200 204 208 216 231 232 236 238 240 235 219 202 198 223 292 316 320 319 321 323 322 321 322 322 322 321 321 319 318 318 316 315 314 311 309 307 304